timestamp,surface_pressure_avg,surface_temp_avg,battery_voltage,lat,long
2017-09-20 00:00:00+00:00,359.9079,14.56,12.97,47.84626,-54.09684
2017-09-20 00:10:00+00:00,354.4014,14.56,12.89,47.84626,-54.09684
2017-09-20 00:20:00+00:00,354.5264,14.5,12.97,47.84626,-54.09684
2017-09-20 00:30:00+00:00,350.3263,14.53,12.97,47.84626,-54.09684
2017-09-20 00:40:00+00:00,343.8713,14.58,12.97,47.84626,-54.09684
2017-09-20 00:50:00+00:00,339.7263,14.6,12.97,47.84626,-54.09684
2017-09-20 01:00:00+00:00,334.0696,14.6,12.97,47.84626,-54.09684
2017-09-20 01:10:00+00:00,326.4313,14.62,12.89,47.84626,-54.09684
2017-09-20 01:20:00+00:00,317.8347,14.65,12.97,47.84626,-54.09684
2017-09-20 01:30:00+00:00,313.5947,14.67,12.97,47.84626,-54.09684
2017-09-20 01:40:00+00:00,306.8747,14.66,12.97,47.84626,-54.09684
2017-09-20 01:50:00+00:00,295.2463,14.66,12.97,47.84626,-54.09684
2017-09-20 02:00:00+00:00,283.1397,14.67,12.89,47.84626,-54.09684
2017-09-20 02:10:00+00:00,274.0063,14.67,12.89,47.84626,-54.09684
2017-09-20 02:20:00+00:00,264.618,14.68,12.97,47.84626,-54.09684
2017-09-20 02:30:00+00:00,253.3781,14.69,12.97,47.84626,-54.09684
2017-09-20 02:40:00+00:00,242.7298,14.69,12.97,47.84626,-54.09684
2017-09-20 02:50:00+00:00,233.2247,14.7,12.97,47.84626,-54.09684
2017-09-20 03:00:00+00:00,223.7748,14.7,12.89,47.84626,-54.09684
2017-09-20 03:10:00+00:00,213.5981,14.7,12.89,47.84626,-54.09684
2017-09-20 03:20:00+00:00,204.2231,14.69,12.97,47.84626,-54.09684
2017-09-20 03:30:00+00:00,198.0998,14.7,12.97,47.84626,-54.09684
2017-09-20 03:40:00+00:00,192.3465,14.69,12.97,47.84626,-54.09684
2017-09-20 03:50:00+00:00,183.6998,14.69,12.97,47.84626,-54.09684
2017-09-20 04:00:00+00:00,175.3915,14.69,12.89,47.84626,-54.09684
2017-09-20 04:10:00+00:00,171.6682,14.65,12.89,47.84626,-54.09684
2017-09-20 04:20:00+00:00,168.9765,14.65,12.97,47.84626,-54.09684
2017-09-20 04:30:00+00:00,165.9482,14.64,12.97,47.84626,-54.09684
2017-09-20 04:40:00+00:00,164.3165,14.6,12.97,47.84626,-54.09684
2017-09-20 04:50:00+00:00,162.3332,14.6,12.97,47.84626,-54.09684
2017-09-20 05:00:00+00:00,161.0081,14.6,12.89,47.84626,-54.09684
2017-09-20 05:10:00+00:00,160.6998,14.6,12.89,47.84626,-54.09684
2017-09-20 05:20:00+00:00,161.7948,14.6,12.97,47.84626,-54.09684
2017-09-20 05:30:00+00:00,164.9432,14.6,12.97,47.84626,-54.09684
2017-09-20 05:40:00+00:00,167.2315,14.6,12.97,47.84626,-54.09684
2017-09-20 05:50:00+00:00,169.9532,14.6,12.97,47.84626,-54.09684
2017-09-20 06:00:00+00:00,172.4315,14.6,12.89,47.84626,-54.09684
2017-09-20 06:10:00+00:00,174.0315,14.6,12.89,47.84626,-54.09684
2017-09-20 06:20:00+00:00,177.3298,14.6,12.89,47.84626,-54.09684
2017-09-20 06:30:00+00:00,182.8582,14.6,12.89,47.84626,-54.09684
2017-09-20 06:40:00+00:00,190.1781,14.6,12.97,47.84626,-54.09684
2017-09-20 06:50:00+00:00,195.7965,14.6,12.97,47.84626,-54.09684
2017-09-20 07:00:00+00:00,198.9948,14.6,12.89,47.84626,-54.09684
2017-09-20 07:10:00+00:00,204.6915,14.6,12.81,47.84626,-54.09684
2017-09-20 07:20:00+00:00,210.1381,14.6,12.89,47.84626,-54.09684
2017-09-20 07:30:00+00:00,214.3864,14.6,12.89,47.84626,-54.09684
2017-09-20 07:40:00+00:00,219.9965,14.6,12.97,47.84626,-54.09684
2017-09-20 07:50:00+00:00,226.1964,14.6,12.97,47.84626,-54.09684
2017-09-20 08:00:00+00:00,230.6964,14.6,12.89,47.84626,-54.09684
2017-09-20 08:10:00+00:00,234.8197,14.6,12.81,47.84626,-54.09684
2017-09-20 08:20:00+00:00,240.7281,14.6,12.89,47.84626,-54.09684
2017-09-20 08:30:00+00:00,247.7448,14.6,12.89,47.84626,-54.09684
2017-09-20 08:40:00+00:00,255.148,14.6,12.97,47.84626,-54.09684
2017-09-20 08:50:00+00:00,262.2947,14.6,12.97,47.84626,-54.09684
2017-09-20 09:00:00+00:00,268.2931,14.6,12.89,47.84626,-54.09684
2017-09-20 09:10:00+00:00,273.9547,14.6,12.81,47.84626,-54.09684
2017-09-20 09:20:00+00:00,281.698,14.6,12.89,47.84626,-54.09684
2017-09-20 09:30:00+00:00,292.0497,14.6,12.89,47.84626,-54.09684
2017-09-20 09:40:00+00:00,301.3696,14.6,12.97,47.84626,-54.09684
2017-09-20 09:50:00+00:00,308.633,14.6,12.97,47.84626,-54.09684
2017-09-20 10:00:00+00:00,317.4563,14.6,12.89,47.84626,-54.09684
2017-09-20 10:10:00+00:00,325.8263,14.6,12.81,47.84626,-54.09684
2017-09-20 10:20:00+00:00,332.148,14.6,12.89,47.84626,-54.09684
2017-09-20 10:30:00+00:00,338.638,14.6,12.89,47.84626,-54.09684
2017-09-20 10:40:00+00:00,347.0778,14.6,12.97,47.84626,-54.09684
2017-09-20 10:50:00+00:00,350.4047,14.6,12.97,47.84626,-54.09684
2017-09-20 11:00:00+00:00,351.3264,14.6,12.89,47.84626,-54.09684
2017-09-20 11:10:00+00:00,356.4863,14.6,12.89,47.84626,-54.09684
2017-09-20 11:20:00+00:00,360.4962,14.6,12.97,47.84626,-54.09684
2017-09-20 11:30:00+00:00,360.2863,14.6,12.97,47.84626,-54.09684
2017-09-20 11:40:00+00:00,360.7512,14.59,12.97,47.84626,-54.09684
2017-09-20 11:50:00+00:00,364.7612,14.58,12.97,47.84626,-54.09684
2017-09-20 12:00:00+00:00,362.7146,14.6,12.97,47.84626,-54.09684
2017-09-20 12:10:00+00:00,355.6229,14.6,12.97,47.84626,-54.09684
2017-09-20 12:20:00+00:00,355.4412,14.6,13.13,47.84626,-54.09684
2017-09-20 12:30:00+00:00,352.6196,14.6,13.21,47.84626,-54.09684
2017-09-20 12:40:00+00:00,347.4929,14.6,13.21,47.84626,-54.09684
2017-09-20 12:50:00+00:00,342.7013,14.6,13.29,47.84626,-54.09684
2017-09-20 13:00:00+00:00,338.3047,14.6,13.29,47.84626,-54.09684
2017-09-20 13:10:00+00:00,333.3647,14.6,13.21,47.84626,-54.09684
2017-09-20 13:20:00+00:00,326.3596,14.6,13.29,47.84626,-54.09684
2017-09-20 13:30:00+00:00,321.4597,14.6,13.29,47.84626,-54.09684
2017-09-20 13:40:00+00:00,314.968,14.6,13.29,47.84626,-54.09684
2017-09-20 13:50:00+00:00,306.9314,14.6,13.29,47.84626,-54.09684
2017-09-20 14:00:00+00:00,298.7347,14.6,13.21,47.84626,-54.09684
2017-09-20 14:10:00+00:00,291.4014,14.6,13.05,47.84626,-54.09684
2017-09-20 14:20:00+00:00,284.488,14.59,13.13,47.84626,-54.09684
2017-09-20 14:30:00+00:00,274.1464,14.59,13.13,47.84626,-54.09684
2017-09-20 14:40:00+00:00,263.7997,14.57,13.13,47.84626,-54.09684
2017-09-20 14:50:00+00:00,254.6564,14.53,13.13,47.84626,-54.09684
2017-09-20 15:00:00+00:00,244.433,14.52,13.13,47.84626,-54.09684
2017-09-20 15:10:00+00:00,234.0564,14.5,13.05,47.84626,-54.09684
2017-09-20 15:20:00+00:00,224.5915,14.5,13.13,47.84626,-54.09684
2017-09-20 15:30:00+00:00,215.4315,14.5,13.13,47.84626,-54.09684
2017-09-20 15:40:00+00:00,204.9014,14.51,13.21,47.84626,-54.09684
2017-09-20 15:50:00+00:00,197.7748,14.6,13.21,47.84626,-54.09684
2017-09-20 16:00:00+00:00,193.8731,14.6,13.13,47.84626,-54.09684
2017-09-20 16:10:00+00:00,185.7181,14.6,13.05,47.84626,-54.09684
2017-09-20 16:20:00+00:00,178.0015,14.6,13.13,47.84626,-54.09684
2017-09-20 16:30:00+00:00,176.5365,14.6,13.13,47.84626,-54.09684
2017-09-20 16:40:00+00:00,172.5081,14.6,13.21,47.84626,-54.09684
2017-09-20 16:50:00+00:00,167.9948,14.6,13.21,47.84626,-54.09684
2017-09-20 17:00:00+00:00,167.7082,14.6,13.21,47.84626,-54.09684
2017-09-20 17:10:00+00:00,167.2298,14.6,13.05,47.84626,-54.09684
2017-09-20 17:20:00+00:00,165.9048,14.6,13.21,47.84626,-54.09684
2017-09-20 17:30:00+00:00,165.9748,14.6,13.21,47.84626,-54.09684
2017-09-20 17:40:00+00:00,167.6948,14.6,13.21,47.84626,-54.09684
2017-09-20 17:50:00+00:00,171.1998,14.6,13.29,47.84626,-54.09684
2017-09-20 18:00:00+00:00,173.0048,14.6,13.21,47.84626,-54.09684
2017-09-20 18:10:00+00:00,172.7982,14.62,13.05,47.84626,-54.09684
2017-09-20 18:20:00+00:00,177.1649,14.61,13.05,47.84626,-54.09684
2017-09-20 18:30:00+00:00,182.6765,14.6,13.05,47.84626,-54.09684
2017-09-20 18:40:00+00:00,182.9431,14.6,13.05,47.84626,-54.09684
2017-09-20 18:50:00+00:00,185.4248,14.61,13.05,47.84626,-54.09684
2017-09-20 19:00:00+00:00,191.4548,14.61,13.05,47.84626,-54.09684
2017-09-20 19:10:00+00:00,195.2564,14.6,12.97,47.84626,-54.09684
2017-09-20 19:20:00+00:00,198.6682,14.63,13.05,47.84626,-54.09684
2017-09-20 19:30:00+00:00,206.0714,14.65,12.97,47.84626,-54.09684
2017-09-20 19:40:00+00:00,213.2364,14.65,13.05,47.84626,-54.09684
2017-09-20 19:50:00+00:00,216.5514,14.64,13.05,47.84626,-54.09684
2017-09-20 20:00:00+00:00,220.3481,14.65,12.97,47.84626,-54.09684
2017-09-20 20:10:00+00:00,227.9115,14.66,12.89,47.84626,-54.09684
2017-09-20 20:20:00+00:00,234.2664,14.66,12.97,47.84626,-54.09684
2017-09-20 20:30:00+00:00,239.6681,14.67,12.97,47.84626,-54.09684
2017-09-20 20:40:00+00:00,247.2814,14.68,12.97,47.84626,-54.09684
2017-09-20 20:50:00+00:00,254.8514,14.68,12.97,47.84626,-54.09684
2017-09-20 21:00:00+00:00,258.6647,14.69,12.97,47.84626,-54.09684
2017-09-20 21:10:00+00:00,262.6099,14.68,12.89,47.84626,-54.09684
2017-09-20 21:20:00+00:00,272.0397,14.66,12.97,47.84626,-54.09684
2017-09-20 21:30:00+00:00,280.1997,14.67,12.97,47.84626,-54.09684
2017-09-20 21:40:00+00:00,286.543,14.6,12.97,47.84626,-54.09684
2017-09-20 21:50:00+00:00,296.1413,14.6,12.97,47.84626,-54.09684
2017-09-20 22:00:00+00:00,308.713,14.6,12.89,47.84626,-54.09684
2017-09-20 22:10:00+00:00,317.798,14.62,12.89,47.84626,-54.09684
2017-09-20 22:20:00+00:00,325.913,14.61,12.97,47.84626,-54.09684
2017-09-20 22:30:00+00:00,336.8196,14.6,12.97,47.84626,-54.09684
2017-09-20 22:40:00+00:00,345.218,14.62,12.97,47.84626,-54.09684
2017-09-20 22:50:00+00:00,353.903,14.63,12.97,47.84626,-54.09684
2017-09-20 23:00:00+00:00,360.6229,14.62,12.89,47.84626,-54.09684
2017-09-20 23:10:00+00:00,365.5129,14.62,12.81,47.84626,-54.09684
2017-09-20 23:20:00+00:00,371.3062,14.63,12.89,47.84626,-54.09684
2017-09-20 23:30:00+00:00,375.2847,14.62,12.89,47.84626,-54.09684
2017-09-20 23:40:00+00:00,378.5146,14.63,12.97,47.84626,-54.09684
2017-09-20 23:50:00+00:00,381.0912,14.63,12.97,47.84626,-54.09684
